THORAD AGENA D DEB, 19363

Orbit data source: Space-Track

THORAD AGENA D DEB, 19363 is space debris in SSO originally from a launch on Wed, 08 Apr 1970 UTC launched from the Air Force Western Test Range (AFWTR). Debris objects in space refer to the collection of defunct objects orbiting the Earth. Examples of debris include non-operational satellites, rocket bodies, and fragments generated from explosions, collisions, or faulty payload assembly.

Loading next visibility...
Identifier
19363, 1970-025PY
Orbit
SSO
Country
Flag of USUS
Related business
Manufacturer
Unknown
Mission
Spacecraft
Bus & Motor
Unknown
Mass
Unknown
Launch date (UTC)
1970-04-08 (56 years ago)
Launch vehicle
Unknown
Launch site
Air Force Western Test Range (AFWTR)
Object type
Payload
Rocket body
Debris
Shape & HBR
Unknown shape, 0.1 m
Radar Cross Section
Medium (>0.1 m² and <1 m²)

Expand to show TLE details & history
Last TLE update: 3 days ago

TLE from 3 days ago
0 THORAD AGENA D DEB
1 19363U 70025PY  26205.88363944  .00000222  00000-0  34710-3 0  9990
2 19363 100.0324 342.6442 0003736 297.4943 214.0897 13.62448832702007
Epoch: 2026-07-24T21:12Z
TLE epoch observation values (Epoch: 2026-07-24T21:12:26.447Z)
Latitude
28.00935°
Longitude
-92.69821°
Altitude
1,032.431 km
Speed
7.337 km/s
True Right ascension
11h 12m 03s
True Declination
27° 52' 20"
Sunlit
Object was in daylight at epoch
Visualization orbit readout
Latitude
Unknown
Longitude
Unknown
Altitude
Unknown
Speed
Unknown
Apparent Right ascension
Unknown
Apparent Declination
Unknown
Sunlit
N/A
Visualization observer readout
Local Sidereal Time
23:15:10
Azimuth
Unknown
Elevation
Unknown
Doppler factor
Unknown
Orbital elements
Apogee altitude
1,026.873 km
Perigee altitude
1,021.343 km
Semi-major axis
7,402.245 km
Eccentricity
0.00037
Inclination
100.0324°
RAAN
342.6442°
Arg. of periapsis
297.4943°
True anomaly
214.06571°
Mean anomaly
214.0897°
Eccentric anomaly
214.07771°
Mean motion
3.40799 °/min
Orbital period
105.63 mins
BSTAR
0.0003471
Loading maneuver chart data...
Computing Atmospheric mass density...

Documentation

Showing up to 5 results
|